Location: Astronomy Club of Akron Observatory
(40.9700°N, 81.5606°W)
Time: 10:05:10
(UTC-05:00)

ATLAS 2AS CENTAUR R/B - Visible Passes

Search period start: 23 November 2017 00:00
Search period end: 03 December 2017 00:00
Orbit: 909 x 1303 km, 63.7° (Epoch: 19 November)

Date Brightness Start Highest point End Pass type
(mag) Time Alt. Az. Time Alt. Az. Time Alt. Az.
23 Nov 5.3 03:08:44 12° NNE 03:08:44 12° NNE 03:10:29 10° NNE visible
23 Nov 4.9 04:56:11 11° NNW 05:01:27 20° NNE 05:06:52 10° ENE visible
23 Nov 3.6 06:46:30 10° NNW 06:54:22 57° NE 07:01:38 10° SE visible
24 Nov 5.0 04:12:57 14° N 04:15:42 16° NNE 04:20:20 10° NE visible
24 Nov 4.1 06:01:45 10° NNW 06:09:13 40° NE 06:16:11 10° ESE visible
25 Nov 5.1 03:29:45 14° N 03:29:50 14° N 03:33:49 10° NE visible
25 Nov 4.4 05:17:12 11° NNW 05:23:53 30° NE 05:30:23 10° E visible
26 Nov 5.4 02:46:35 11° NNE 02:46:35 11° NNE 02:47:33 10° NNE visible
26 Nov 4.7 04:34:02 15° N 04:38:23 23° NNE 04:44:15 10° E visible
26 Nov 3.3 06:22:57 10° NNW 06:30:57 70° NE 06:38:17 10° SE visible
27 Nov 4.9 03:50:56 17° N 03:52:44 18° NNE 03:57:50 10° ENE visible
27 Nov 3.7 05:38:23 11° NNW 05:45:54 49° NE 05:53:04 10° ESE visible
28 Nov 5.2 03:07:52 15° NNE 03:07:52 15° NNE 03:11:17 10° NE visible
28 Nov 4.2 04:55:19 17° NNW 05:00:41 35° NE 05:07:28 10° ESE visible
28 Nov 3.1 06:44:24 10° NW 06:52:13 64° WSW 06:59:22 10° SSE visible
29 Nov 4.6 04:12:19 21° N 04:15:16 26° NNE 04:21:31 10° E visible
29 Nov 3.0 05:59:47 11° NW 06:07:27 87° NE 06:14:48 10° SE visible
30 Nov 4.8 03:29:23 21° NNE 03:29:42 21° NNE 03:35:15 10° ENE visible
30 Nov 3.4 05:16:52 20° NNW 05:22:31 60° NE 05:29:49 10° SE visible
30 Nov 5.2 20:55:25 10° SSW 20:55:35 11° SSW 20:55:35 11° SSW visible
01 Dec 5.3 02:46:32 15° NE 02:46:32 15° NE 02:48:45 10° ENE visible
01 Dec 3.9 04:34:00 29° N 04:37:24 43° NE 04:44:25 10° ESE visible
01 Dec 3.2 06:21:29 12° NW 06:28:34 50° WSW 06:35:28 10° S visible
01 Dec 4.5 20:10:59 10° SSW 20:13:17 22° S 20:13:17 22° S visible
02 Dec 4.3 03:51:15 31° NNE 03:52:06 31° NE 03:58:41 10° E visible
02 Dec 2.9 05:38:43 24° NW 05:43:55 76° WSW 05:51:10 10° SSE visible
02 Dec 4.0 19:27:03 10° S 19:30:59 28° SSE 19:30:59 28° SSE visible
02 Dec 5.0 21:16:58 10° SW 21:18:30 17° WSW 21:18:30 17° WSW visible
